Power, MT (59468)

8:59 AM MDT on September 01, 2015 (GMT -0600)
Burgmaier Farm | | Change Station
CLOSE
Current Station
Personal Weather Station
Location: Power, MT
Elevation: 3753 ft
Nearby Weather Stations
Active Advisory: Fire Weather Warning

Elev 3753 ft 47.74 °N, 111.58 °W | Updated 16 seconds ago

Clear
Clear
64.7 °F
Feels Like 64.7 °F
N
15.6
Wind Variable Wind from SW
Gusts 21.0 mph

Today
High -- | Low -- °F
--% Chance of Precip.
Yesterday
High -- | Low -- °F
Precip. -- in
6:44 AM 8:06 PM
Waning Gibbous, 88% visible
Pressure 29.78 in
Visibility 10.0 miles
Clouds Clear
Dew Point 36 °F
Humidity 34%
Rainfall 0.00 in
Snow Depth Not available.
UV 2 out of 12
Pollen 8.80 out of 12
Air Quality Not available.
Flu Activity Not available.
METAR KGTF 011453Z 22019G26KT 10SM CLR 20/04 A2985 RMK AO2 PK WND 22026/1419 SLP083 T02000044 53004
Pressure 29.78 in
Visibility 10.0 miles
Clouds Clear
Dew Point 36 °F
Humidity 34%
Rainfall 0.00 in
Snow Depth Not available.
UV 2 out of 12
Pollen 8.80 out of 12
Air Quality Not available.
Flu Activity Not available.
METAR KGTF 011453Z 22019G26KT 10SM CLR 20/04 A2985 RMK AO2 PK WND 22026/1419 SLP083 T02000044 53004

10-Day Weather Forecast

×

Almanac

Astronomy

Sep. 01, 2015 Rise Set
Actual Time
Civil Twilight
Nautical Twilight
Astronomical Twilight
Moon
Length of Visible Light
Length of Day
Tomorrow will be .
, % of the Moon is Illuminated

Today's Extremes

State Highs State Lows

Community

WunderPhotos

Upload Photos

1,851,513 photos uploaded!

WunderBlogs® & News

Nearby

Air Quality

  Air Quality AQ Index Pollutant
Not available.

Snow Depth

Station Depth Elevation

Earthquake Activity

City Distance Mag. Time & Date
Minimum magnitude displayed is 2.5.

Coastal Water Temperatures

Place Temperature

Stations

Nearby Weather Stations

Station Location Temp. Windchill Dew Point Humidity Wind Precip. Elev Updated Type
                   
Fire Weather Warning
Statement as of 7:35 AM MDT on September 01, 2015

... Red flag warning in effect from noon today to 9 PM MDT this
evening for low humidity and gusty winds for fire weather zone
114...

The National Weather Service in Great Falls has issued a red flag
warning... which is in effect from noon today to 9 PM MDT this
evening.

* Affected area... fire weather zone 114.

* Wind... west to southwest winds 15 to 20 mph with gusts 25 to 30
mph are expected.

* Humidity... minimum humidity values in the afternoon are
forecast to be 15-20 percent.

Precautionary/preparedness actions...

A red flag warning means that critical fire weather conditions
are likely. A combination of gusty winds... low relative
humidity... and warm temperatures will create high fire growth
potential.

Please advise the appropriate officials or fire crews in these
areas of this red flag warning.